Location: Weatherford
(35.5260°N, 98.7070°W)
Time: 08:32:25
(UTC-05:00)

Amateur Radio Satellites - All Passes

Search period start: 24 October 2014 08:02
Search period end: 25 October 2014 08:02
Location: Weatherford, 35.5260°N, 98.7070°W

Satellite Date Start Highest point End Downlink Frequencies (MHz)
Time Altitude Azimuth
Hamsat 24 Oct 08:22:53 08:25:52 19° 291° (WNW) 08:28:51 145.90 MHz
RS-15 24 Oct 08:25:46 08:37:02 77° 60° (ENE) 08:48:47 29.354 - 29.394 USB, Beacon 29.352 USB
SO-67 24 Oct 08:31:33 08:34:59 67° 101° (E) 08:38:24 435.3500 MHz FM
JAS-2 24 Oct 08:38:50 08:44:51 26° 297° (WNW) 08:50:54 435.800 - 435.900 CW/SSB, 435.910 FM
PANSAT 24 Oct 08:46:15 08:49:14 22° 169° (SSE) 08:52:13 not established
STRAND 1 24 Oct 09:07:54 09:10:09 13° 268° (W) 09:12:25 ?
Saudisat 1A 24 Oct 09:16:04 09:19:55 30° 307° (NW) 09:23:48 436.775 MHz
MaSat-1 24 Oct 10:15:52 10:18:16 37° 64° (ENE) 10:20:31 437.345 MHz
PANSAT 24 Oct 10:25:37 10:28:56 28° 181° (S) 10:32:14 not established
Oscar 11 24 Oct 10:35:03 10:38:34 24° 96° (E) 10:42:03 145.825 FM, Beacon 2401.500 USB
HO-68 24 Oct 10:36:26 10:43:39 77° 104° (ESE) 10:50:50 435.675 MHz FM
RS-15 24 Oct 10:39:47 10:48:18 26° 257° (WSW) 10:57:07 29.354 - 29.394 USB, Beacon 29.352 USB
ZACube-1 24 Oct 11:22:23 11:26:15 33° 97° (E) 11:30:01 437.345 MHz
UKube-1 24 Oct 11:28:22 11:32:44 71° 285° (WNW) 11:37:03 145.840 MHz, 145.915 MHz
KITSAT 1 24 Oct 11:38:51 11:44:36 22° 103° (ESE) 11:50:20 435.175 FM
PANSAT 24 Oct 12:05:51 12:08:36 19° 194° (SSW) 12:11:22 not established
FUNcube-1 24 Oct 12:07:01 12:11:14 66° 284° (WNW) 12:15:21 145.950 - 145.970 MHz USB
ISS 24 Oct 12:08:49 12:09:58 11° 126° (SE) 12:11:06 145.800 FM
Oscar 11 24 Oct 12:11:10 12:14:38 24° 290° (WNW) 12:18:05 145.825 FM, Beacon 2401.500 USB
Oscar 10/S400 24 Oct 12:13:24 12:36:53 29° 153° (SSE) 12:52:10 145.825 - 145.975 CW/USB, Beacon 145.810 USB
HO-68 24 Oct 12:25:52 12:30:33 19° 301° (WNW) 12:35:13 435.675 MHz FM
Oscar 16 24 Oct 12:53:46 12:55:01 11° 62° (ENE) 12:56:17 437.025 USB, Beacon 2401.1428
ZACube-1 24 Oct 12:59:38 13:02:21 17° 292° (WNW) 13:05:01 437.345 MHz
SO-50 24 Oct 13:05:04 13:09:02 32° 113° (ESE) 13:13:05 436.795 FM
JAS-1B 24 Oct 13:13:06 13:16:38 17° 64° (ENE) 13:20:04 435.800 - 435.900 CW/SSB
KITSAT 1 24 Oct 13:31:09 13:39:11 70° 300° (WNW) 13:47:16 435.175 FM
ISS 24 Oct 13:43:00 13:46:16 56° 320° (NW) 13:49:33 145.800 FM
Oscar 19 24 Oct 13:43:26 13:48:03 34° 70° (ENE) 13:52:40 437.125 CW, 437.150 USB
Sapphire 24 Oct 13:43:41 13:48:43 37° 57° (ENE) 13:53:42 437.095 MHz 1200 baud AX-25 AFSK
AO-27 24 Oct 14:00:58 14:04:47 21° 66° (ENE) 14:08:37 436.795 MHz FM
PCSat 24 Oct 14:06:03 14:11:27 63° 62° (ENE) 14:16:48 145.825 MHz
AO-Echo 24 Oct 14:27:29 14:32:06 46° 72° (ENE) 14:36:53 ?
Oscar 16 24 Oct 14:28:28 14:33:38 82° 257° (WSW) 14:38:49 437.025 USB, Beacon 2401.1428
UOSAT-12 24 Oct 14:31:41 14:35:13 22° 110° (ESE) 14:38:50 437.025 FM, 437.400 FM
SO-50 24 Oct 14:45:56 14:49:35 24° 309° (NW) 14:53:21 436.795 FM
Uribyol 2 24 Oct 14:47:17 14:52:26 63° 74° (ENE) 14:57:36 436.500 FM
ITAMSAT 1 24 Oct 14:53:12 14:58:21 68° 74° (ENE) 15:03:33 435.822 SSB
JAS-1B 24 Oct 15:00:52 15:06:55 56° 258° (WSW) 15:12:30 435.800 - 435.900 CW/SSB
Gurwin Techsat 1B 24 Oct 15:10:47 15:15:53 50° 72° (ENE) 15:21:00 435.225 FM
TMSAT-1 24 Oct 15:22:20 15:27:23 47° 72° (ENE) 15:32:27 436.925 FM
ISS 24 Oct 15:23:00 15:23:34 10° 338° (NNW) 15:24:08 145.800 FM
Oscar 19 24 Oct 15:23:17 15:27:24 24° 265° (W) 15:31:31 437.125 CW, 437.150 USB
Sapphire 24 Oct 15:27:28 15:31:54 26° 253° (WSW) 15:36:19 437.095 MHz 1200 baud AX-25 AFSK
KITSAT 1 24 Oct 15:31:24 15:36:07 16° 321° (NW) 15:40:52 435.175 FM
AO-27 24 Oct 15:39:04 15:43:58 42° 261° (W) 15:48:55 436.795 MHz FM
PCSat 24 Oct 15:51:26 15:54:14 14° 257° (WSW) 15:57:03 145.825 MHz
AO-Echo 24 Oct 16:08:06 16:11:06 16° 268° (W) 16:14:11 ?
Saudisat 1A 24 Oct 16:08:13 16:09:02 10° 44° (NE) 16:09:51 436.775 MHz
UOSAT-12 24 Oct 16:10:53 16:15:08 35° 306° (NW) 16:19:27 437.025 FM, 437.400 FM
Uosat F 24 Oct 16:13:18 16:16:54 20° 66° (ENE) 16:20:31 435.120 FM
AO-7 24 Oct 16:17:24 16:25:12 48° 66° (ENE) 16:33:01 29.400 - 29.500 MHz
Uribyol 2 24 Oct 16:29:55 16:32:16 13° 268° (W) 16:34:38 436.500 FM
ITAMSAT 1 24 Oct 16:36:19 16:38:16 12° 269° (W) 16:40:12 435.822 SSB
Gurwin Techsat 1B 24 Oct 16:52:42 16:56:05 17° 267° (W) 16:59:29 435.225 FM
TMSAT-1 24 Oct 17:03:56 17:07:30 18° 267° (W) 17:11:05 436.925 FM
JAS-2 24 Oct 17:03:59 17:07:57 19° 60° (ENE) 17:12:13 435.800 - 435.900 CW/SSB, 435.910 FM
Hamsat 24 Oct 17:38:06 17:40:32 15° 68° (ENE) 17:42:58 145.90 MHz
Saudisat 1A 24 Oct 17:44:46 17:49:13 89° 242° (WSW) 17:53:37 436.775 MHz
Uosat F 24 Oct 17:50:39 17:55:21 41° 261° (W) 18:00:06 435.120 FM
OPAL 24 Oct 17:56:20 17:59:56 20° 97° (E) 18:03:31 ?
AO-7 24 Oct 18:10:48 18:18:04 34° 262° (W) 18:25:23 29.400 - 29.500 MHz
JAS-2 24 Oct 18:46:32 18:52:13 63° 260° (W) 18:58:43 435.800 - 435.900 CW/SSB, 435.910 FM
SO-67 24 Oct 19:02:45 19:04:30 14° 69° (ENE) 19:06:16 435.3500 MHz FM
Hamsat 24 Oct 19:12:14 19:16:09 37° 262° (W) 19:20:04 145.90 MHz
OPAL 24 Oct 19:34:20 19:38:55 39° 291° (WNW) 19:43:28 ?
STRAND 1 24 Oct 19:39:48 19:44:07 27° 96° (E) 19:48:24 ?
AO-40 24 Oct 20:02:40 22:55:08 41° 197° (SSW) 04:25:01 Beacon 2401.320
ISS 24 Oct 20:14:07 20:17:19 41° 38° (NE) 20:20:30 145.800 FM
SO-67 24 Oct 20:34:17 20:37:13 26° 263° (W) 20:40:09 435.3500 MHz FM
RS-15 24 Oct 20:44:12 20:45:46 10° 97° (E) 20:47:20 29.354 - 29.394 USB, Beacon 29.352 USB
HO-68 24 Oct 21:01:45 21:08:21 42° 67° (ENE) 21:15:00 435.675 MHz FM
STRAND 1 24 Oct 21:18:45 21:23:14 31° 291° (WNW) 21:27:42 ?
KITSAT 1 24 Oct 21:28:04 21:35:21 35° 51° (NE) 21:42:34 435.175 FM
Oscar 11 24 Oct 21:28:31 21:30:47 14° 67° (ENE) 21:33:03 145.825 FM, Beacon 2401.500 USB
SO-50 24 Oct 21:39:52 21:43:01 17° 47° (NE) 21:46:10 436.795 FM
ISS 24 Oct 21:51:40 21:53:44 16° 232° (SW) 21:55:48 145.800 FM
ZACube-1 24 Oct 22:16:11 22:19:40 22° 69° (ENE) 22:23:07 437.345 MHz
UKube-1 24 Oct 22:20:34 22:24:52 66° 75° (ENE) 22:29:12 145.840 MHz, 145.915 MHz
RS-15 24 Oct 22:45:04 22:55:58 68° 114° (ESE) 23:06:44 29.354 - 29.394 USB, Beacon 29.352 USB
HO-68 24 Oct 22:49:48 22:56:04 33° 263° (W) 23:02:23 435.675 MHz FM
FUNcube-1 24 Oct 22:59:41 23:04:14 66° 76° (ENE) 23:08:45 145.950 - 145.970 MHz USB
Oscar 11 24 Oct 23:02:26 23:06:33 44° 261° (W) 23:10:42 145.825 FM, Beacon 2401.500 USB
UOSAT-12 24 Oct 23:05:20 23:06:45 11° 43° (NE) 23:08:10 437.025 FM, 437.400 FM
SO-50 24 Oct 23:19:09 23:23:57 60° 244° (WSW) 23:28:45 436.795 FM
KITSAT 1 24 Oct 23:23:13 23:30:53 49° 250° (WSW) 23:38:32 435.175 FM
MaSat-1 24 Oct 23:49:09 23:52:52 30° 108° (ESE) 23:56:20 437.345 MHz
ZACube-1 24 Oct 23:51:45 23:55:50 31° 263° (W) 23:59:54 437.345 MHz
UOSAT-12 25 Oct 00:42:52 00:47:36 87° 61° (ENE) 00:52:13 437.025 FM, 437.400 FM
RS-15 25 Oct 00:59:27 01:09:03 34° 316° (NW) 01:18:43 29.354 - 29.394 USB, Beacon 29.352 USB
Oscar 10/S400 25 Oct 01:10:28 02:21:03 30° 238° (WSW) 06:10:25 145.825 - 145.975 CW/USB, Beacon 145.810 USB
MaSat-1 25 Oct 01:25:30 01:28:28 19° 300° (WNW) 01:31:16 437.345 MHz
Oscar 19 25 Oct 01:59:17 02:02:10 15° 93° (E) 02:05:03 437.125 CW, 437.150 USB
AO-Echo 25 Oct 02:38:19 02:42:15 21° 94° (E) 02:46:09 ?
Oscar 16 25 Oct 02:43:25 02:48:20 45° 99° (E) 02:53:12 437.025 USB, Beacon 2401.1428
JAS-1B 25 Oct 02:45:46 02:52:25 47° 101° (E) 03:00:16 435.800 - 435.900 CW/SSB
Uribyol 2 25 Oct 03:03:39 03:08:07 28° 97° (E) 03:12:32 436.500 FM
PCSat 25 Oct 03:05:26 03:07:14 12° 102° (ESE) 03:09:03 145.825 MHz
ITAMSAT 1 25 Oct 03:09:37 03:14:13 31° 97° (E) 03:18:46 435.822 SSB
RS-15 25 Oct 03:22:05 03:26:25 13° 350° (N) 03:30:48 29.354 - 29.394 USB, Beacon 29.352 USB
Gurwin Techsat 1B 25 Oct 03:30:35 03:34:58 26° 96° (E) 03:39:18 435.225 FM
Oscar 19 25 Oct 03:36:49 03:41:47 53° 287° (WNW) 03:46:44 437.125 CW, 437.150 USB
TMSAT-1 25 Oct 03:41:49 03:46:03 24° 95° (E) 03:50:15 436.925 FM
AO-27 25 Oct 03:54:49 04:00:04 89° 103° (ESE) 04:05:17 436.795 MHz FM
AO-Echo 25 Oct 04:16:07 04:21:07 43° 288° (WNW) 04:26:05 ?
Sapphire 25 Oct 04:22:05 04:27:24 63° 113° (ESE) 04:32:46 437.095 MHz 1200 baud AX-25 AFSK
Oscar 16 25 Oct 04:23:47 04:27:18 19° 294° (WNW) 04:30:48 437.025 USB, Beacon 2401.1428
AO-7 25 Oct 04:24:08 04:29:09 17° 93° (E) 04:34:07 29.400 - 29.500 MHz
JAS-1B 25 Oct 04:37:02 04:42:49 31° 292° (WNW) 04:49:29 435.800 - 435.900 CW/SSB
Uribyol 2 25 Oct 04:43:01 04:47:29 30° 291° (WNW) 04:51:56 436.500 FM
PCSat 25 Oct 04:44:31 04:49:55 75° 297° (WNW) 04:55:21 145.825 MHz
ITAMSAT 1 25 Oct 04:49:11 04:53:34 28° 292° (WNW) 04:57:56 435.822 SSB
OPAL 25 Oct 05:08:06 05:12:26 28° 67° (ENE) 05:16:43 ?
Gurwin Techsat 1B 25 Oct 05:10:10 05:14:55 34° 290° (WNW) 05:19:38 435.225 FM
TMSAT-1 25 Oct 05:21:11 05:26:00 36° 290° (WNW) 05:30:47 436.925 FM
RS-15 25 Oct 05:38:21 05:45:35 19° 28° (NNE) 05:52:55 29.354 - 29.394 USB, Beacon 29.352 USB
JAS-2 25 Oct 05:58:54 06:05:18 27° 93° (E) 06:11:34 435.800 - 435.900 CW/SSB, 435.910 FM
Uosat F 25 Oct 06:01:00 06:06:04 78° 103° (ESE) 06:11:06 435.120 FM
Sapphire 25 Oct 06:07:41 06:11:16 18° 310° (NW) 06:14:52 437.095 MHz 1200 baud AX-25 AFSK
AO-7 25 Oct 06:14:20 06:22:41 84° 288° (WNW) 06:31:02 29.400 - 29.500 MHz
PCSat 25 Oct 06:32:55 06:34:15 11° 316° (NW) 06:35:34 145.825 MHz
OPAL 25 Oct 06:46:38 06:51:10 31° 261° (W) 06:55:40 ?
STRAND 1 25 Oct 06:52:55 06:57:16 29° 69° (ENE) 07:01:39 ?
Hamsat 25 Oct 07:00:29 07:04:30 43° 99° (E) 07:08:32 145.90 MHz
Uosat F 25 Oct 07:42:47 07:44:08 11° 298° (WNW) 07:45:29 435.120 FM
JAS-2 25 Oct 07:42:54 07:50:32 59° 288° (WNW) 07:58:06 435.800 - 435.900 CW/SSB, 435.910 FM
Saudisat 1A 25 Oct 07:48:15 07:52:27 48° 115° (ESE) 07:56:41 436.775 MHz
